Location: Unspecified
(0.0000°N, 0.0000°E)
Time: 03:15:06
(UTC+00:00)

Hubble Space Telescope - Pass Details

Date: 13 November 2019
Orbit: 536 x 540 km, 28.5° (Epoch: 10 November)

Event Time Altitude Azimuth Distance (km) Brightness Sun altitude
Rises 19:01:06 0° 274° (W) 2,670 5.6 -18.2°
Reaches altitude 10° 19:04:15 10° 299° (WNW) 1,779 4.0 -19.0°
Maximum altitude 19:06:30 14° 332° (NNW) 1,526 3.2 -19.5°
Enters shadow 19:07:59 12° 356° (N) 1,639 3.1 -19.8°
